Volkel, Netherlands

5:57 PM CEST on June 27, 2017 (GMT +0200)
Volkel Air Base

Weather History for EHVK - January, 2014

Change the Weather History Date:

Friday, January 31, 2014

  Actual Average Record
Temperature  
Mean Temperature 35 °F -  
Max Temperature 46 °F 43 °F 53 °F (2000)
Min Temperature 24 °F 33 °F 17 °F (2003)
Degree Days  
Heating Degree Days 30    
Moisture  
Dew Point 32 °F    
Average Humidity 84    
Maximum Humidity 100    
Minimum Humidity 59    
Precipitation  
Precipitation 0.00 in - - ()
Sea Level Pressure  
Sea Level Pressure 29.71 in    
Wind  
Wind Speed 5 mph ()    
Max Wind Speed 15 mph    
Max Gust Speed -    
Visibility 4.2 miles    
Events Fog    
Averages and records for this station are not official NWS values.
T = Trace of Precipitation, MM = Missing Value Source: Averaged Metar Reports

Daily Weather History Graph

Daily Weather History Graph

Search for Another Location

Airport or City:

Trip Planner

Search our weather history database for the weather conditions in past years. The results will help you decide how hot, cold, wet, or windy it might be!

Date:

Astronomy

Jan. 31, 2014 Rise Set
Actual Time 8:17 AM CET 5:24 PM CET
Civil Twilight 7:41 AM CET 6:00 PM CET
Nautical Twilight 7:00 AM CET 6:41 PM CET
Astronomical Twilight 6:21 AM CET 7:20 PM CET
Moon 8:05 AM CET (1/31) 6:42 PM CET (1/31)
Length of Visible Light 10h 19m
Length of Day
9h 06m
New Moon, 0% of the Moon is Illuminated
Jan 31
New Moon
Feb 6
First Quarter
Feb 15
Full
Feb 22
Last Quarter
Mar 1
New

Hourly Weather History & Observations

Time (CET) Temp. Windchill Dew Point Humidity Pressure Visibility Wind Dir Wind Speed Gust Speed Precip Events Conditions
12:00 AM 31 °F - 29 °F 88% 29.74 in 3 mi ENE 4.5 mph - -   Mist
12:07 AM 30.2 °F 24.3 °F 28.4 °F 93% 29.71 in - ENE 5.8 mph - N/A   Overcast
12:25 AM 32.0 °F 27.5 °F 28.4 °F 87% 29.71 in - ENE 4.6 mph - N/A   Overcast
12:55 AM 30.2 °F 25.4 °F 28.4 °F 93% 29.74 in - East 4.6 mph - N/A   Overcast
1:00 AM 31 °F - 29 °F 89% 29.75 in 3 mi East 4.5 mph - -   Mist
1:25 AM 30.2 °F 25.4 °F 28.4 °F 93% 29.74 in - ENE 4.6 mph - N/A   Overcast
1:55 AM 32.0 °F 27.5 °F 28.4 °F 87% 29.74 in - ENE 4.6 mph - N/A   Overcast
2:00 AM 31 °F - 29 °F 91% 29.76 in 3 mi ENE 4.5 mph - -   Mist
2:25 AM 32.0 °F 27.5 °F 30.2 °F 93% 29.74 in - ENE 4.6 mph - N/A   Overcast
2:42 AM 32.0 °F 27.5 °F 28.4 °F 87% 29.74 in 3.1 mi ENE 4.6 mph - N/A   Overcast
2:55 AM 32.0 °F 27.5 °F 28.4 °F 87% 29.74 in 3.1 mi NE 4.6 mph - N/A   Mostly Cloudy
3:00 AM 31 °F - 29 °F 89% 29.76 in 3 mi NE 4.5 mph - -   Mist
3:25 AM 32.0 °F 28.7 °F 28.4 °F 87% 29.74 in 3.1 mi ENE 3.5 mph - N/A   Overcast
3:34 AM 30.2 °F - 28.4 °F 93% 29.74 in - ENE 2.3 mph - N/A   Overcast
3:55 AM 30.2 °F 26.7 °F 28.4 °F 93% 29.74 in - East 3.5 mph - N/A   Mostly Cloudy
4:00 AM 29 °F - 28 °F 93% 29.76 in 3 mi East 4.5 mph - -   Mist
4:16 AM 30.2 °F 26.7 °F 28.4 °F 93% 29.74 in 3.1 mi East 3.5 mph - N/A   Mostly Cloudy
4:20 AM 30.2 °F 26.7 °F 28.4 °F 93% 29.74 in - ENE 3.5 mph - N/A   Scattered Clouds
4:25 AM 30.2 °F 26.7 °F 28.4 °F 93% 29.74 in - East 3.5 mph - N/A   Partly Cloudy
4:55 AM 30.2 °F 26.7 °F 28.4 °F 93% 29.74 in 2.8 mi East 3.5 mph - N/A   Mist
5:00 AM 29 °F - 27 °F 90% 29.75 in 3 mi East 4.5 mph - -   Mist
5:25 AM 28.4 °F 24.6 °F 26.6 °F 93% 29.74 in - East 3.5 mph - N/A   Mist
5:55 AM 28.4 °F - 28.4 °F 100% 29.74 in - ESE 2.3 mph - N/A   Mist
6:00 AM 29 °F - 28 °F 92% 29.75 in 3 mi ESE 2.2 mph - -   Mist
6:25 AM 28.4 °F - 28.4 °F 100% 29.74 in - East 2.3 mph - N/A   Mist
6:55 AM 28.4 °F - 26.6 °F 93% 29.74 in 2.2 mi Calm Calm - N/A   Mist
7:00 AM 28 °F - 27 °F 96% 29.75 in 2 mi Calm Calm - -   Mist
7:25 AM 26.6 °F 22.6 °F 26.6 °F 100% 29.74 in 1.6 mi East 3.5 mph - N/A   Mist
7:29 AM 24.8 °F 20.5 °F 24.8 °F 100% 29.74 in 1.7 mi East 3.5 mph - N/A   Mist
7:55 AM 26.6 °F - 26.6 °F 100% 29.74 in 1.7 mi Calm Calm - N/A   Mist
7:57 AM 26.6 °F - 26.6 °F 100% 29.74 in 1.7 mi Calm Calm - N/A   Mist
8:00 AM 27 °F - 26 °F 97% 29.77 in 2 mi Calm Calm - -   Mist
8:06 AM 26.6 °F - 26.6 °F 100% 29.74 in 0.7 mi Calm Calm - N/A   Mist
8:25 AM 26.6 °F - 24.8 °F 93% 29.74 in 0.2 mi ESE 1.2 mph - N/A Fog Light Freezing Fog
8:37 AM 26.6 °F - 24.8 °F 93% 29.77 in 0.6 mi ESE 2.3 mph - N/A Fog Light Freezing Fog
8:44 AM 26.6 °F - 26.6 °F 100% 29.77 in 1.1 mi ESE 1.2 mph - N/A   Mist
8:55 AM 26.6 °F - 26.6 °F 100% 29.77 in 1.4 mi Calm Calm - N/A   Mist
9:00 AM 27 °F - 27 °F 98% 29.78 in 1 mi Calm Calm - - Fog Fog
9:04 AM 26.6 °F - 26.6 °F 100% 29.77 in 0.9 mi Calm Calm - N/A   Mist
9:08 AM 26.6 °F - 26.6 °F 100% 29.77 in 1.2 mi ESE 1.2 mph - N/A   Mist
9:15 AM 26.6 °F - 26.6 °F 100% 29.77 in 0.9 mi ESE 1.2 mph - N/A   Mist
9:20 AM 28.4 °F - 26.6 °F 93% 29.77 in 1.0 mi ESE 2.3 mph - N/A   Mist
9:25 AM 28.4 °F - 28.4 °F 100% 29.77 in 1.4 mi SE 2.3 mph - N/A   Partly Cloudy
9:38 AM 28.4 °F - 28.4 °F 100% 29.77 in 1.9 mi South 2.3 mph - N/A   Mist
9:55 AM 32.0 °F - 30.2 °F 93% 29.77 in - SSE 2.3 mph - N/A   Mist
10:00 AM 33 °F - 30 °F 82% 29.78 in 2 mi SSE 2.2 mph - -   Mist
10:00 AM 32.0 °F - 30.2 °F 93% 29.77 in - SSE 2.3 mph - N/A   Mist
10:13 AM 33.8 °F 30.8 °F 30.2 °F 87% 29.74 in - SSE 3.5 mph - N/A   Mist
10:25 AM 33.8 °F - 32.0 °F 93% 29.74 in - SSE 2.3 mph - N/A   Mist
10:45 AM 35.6 °F 32.8 °F 32.0 °F 87% 29.74 in - South 3.5 mph - N/A   Mist
10:55 AM 37.4 °F 34.9 °F 33.8 °F 87% 29.74 in - South 3.5 mph - N/A   Mist
11:00 AM 37 °F - 34 °F 84% 29.76 in 3 mi SSW 4.5 mph - -   Mist
11:02 AM 37.4 °F 34.9 °F 33.8 °F 87% 29.74 in 3.1 mi SSW 3.5 mph - N/A   Mist
11:18 AM 39.2 °F 35.9 °F 33.8 °F 81% 29.74 in 3.1 mi SSW 4.6 mph - N/A   Mist
11:25 AM 39.2 °F 35.0 °F 35.6 °F 87% 29.74 in 3.1 mi SSW 5.8 mph - N/A   Mist
11:55 AM 41.0 °F 36.4 °F 35.6 °F 81% 29.74 in 3.7 mi SSW 6.9 mph - N/A   Mist
12:00 PM 42 °F - 37 °F 75% 29.77 in 4 mi SSW 6.7 mph - -   Mist
12:25 PM 42.8 °F 38.0 °F 37.4 °F 81% 29.74 in 5.0 mi SSW 8.1 mph - N/A   Mist
12:35 PM 42.8 °F 38.0 °F 37.4 °F 81% 29.74 in 5.6 mi SSW 8.1 mph - N/A   Mist
12:55 PM 44.6 °F 40.2 °F 37.4 °F 76% 29.74 in 5.6 mi South 8.1 mph - N/A   Mist
1:00 PM 44 °F - 38 °F 71% 29.75 in 6 mi South 8.9 mph - -   Mist
1:25 PM 44.6 °F 40.2 °F 37.4 °F 76% 29.71 in 6.2 mi South 8.1 mph - N/A   Unknown
1:50 PM 44.6 °F 39.2 °F 37.4 °F 76% 29.71 in 6.2 mi South 10.4 mph - N/A   Partly Cloudy
1:55 PM 44.6 °F 39.2 °F 37.4 °F 76% 29.71 in 6.2 mi South 10.4 mph - N/A   Partly Cloudy
2:00 PM 45 °F - 37 °F 64% 29.74 in 8 mi South 11.2 mph - -   Scattered Clouds
2:25 PM 44.6 °F 39.2 °F 35.6 °F 71% 29.71 in 6.2 mi South 10.4 mph - N/A   Unknown
2:51 PM 46.4 °F 41.5 °F 35.6 °F 66% 29.68 in 6.2 mi South 10.4 mph - N/A   Unknown
2:55 PM 46.4 °F 41.5 °F 35.6 °F 66% 29.68 in 6.2 mi South 10.4 mph - N/A   Unknown
3:00 PM 46 °F - 36 °F 59% 29.71 in 9 mi South 11.2 mph - -  
3:25 PM 46.4 °F 42.4 °F 37.4 °F 71% 29.68 in 6.2 mi SSE 8.1 mph - N/A   Partly Cloudy
3:55 PM 44.6 °F 39.7 °F 35.6 °F 71% 29.68 in 6.2 mi SSE 9.2 mph - N/A   Unknown
4:00 PM 44 °F - 36 °F 65% 29.71 in 7 mi SSE 8.9 mph - -   Scattered Clouds
4:25 PM 42.8 °F 38.6 °F 35.6 °F 76% 29.68 in 6.2 mi SSE 6.9 mph - N/A   Unknown
4:55 PM 42.8 °F 38.6 °F 35.6 °F 76% 29.68 in 5.6 mi SSE 6.9 mph - N/A   Haze
5:00 PM 42 °F - 36 °F 70% 29.70 in 6 mi SSE 6.7 mph - -   Light Haze
5:25 PM 42.8 °F 38.0 °F 35.6 °F 76% 29.68 in 5.6 mi SSE 8.1 mph - N/A   Haze
5:55 PM 41.0 °F 36.4 °F 33.8 °F 76% 29.68 in 6.2 mi SSE 6.9 mph - N/A   Mostly Cloudy
6:00 PM 41 °F - 35 °F 70% 29.69 in 7 mi SSE 6.7 mph - -   Mostly Cloudy
6:25 PM 41.0 °F 35.8 °F 35.6 °F 81% 29.65 in 6.2 mi SE 8.1 mph - N/A   Overcast
6:55 PM 41.0 °F 35.8 °F 35.6 °F 81% 29.65 in 6.2 mi SSE 8.1 mph - N/A   Overcast
7:00 PM 41 °F - 35 °F 73% 29.67 in 6 mi SSE 8.9 mph - -   Partly Cloudy
7:25 PM 41.0 °F 35.2 °F 35.6 °F 81% 29.65 in 5.6 mi SSE 9.2 mph - N/A   Haze
7:55 PM 41.0 °F 35.2 °F 35.6 °F 81% 29.62 in 5.6 mi SSE 9.2 mph - N/A   Haze
8:00 PM 42 °F - 36 °F 71% 29.63 in 6 mi SSE 8.9 mph - -   Light Haze
8:25 PM 42.8 °F 37.0 °F 35.6 °F 76% 29.59 in 6.2 mi SSE 10.4 mph - N/A   Overcast
8:55 PM 42.8 °F 36.2 °F 35.6 °F 76% 29.59 in 6.2 mi SSE 12.7 mph - N/A   Mostly Cloudy
9:00 PM 43 °F - 35 °F 63% 29.60 in 7 mi SSE 13.4 mph - -   Overcast
9:25 PM 42.8 °F 35.4 °F 33.8 °F 70% 29.56 in 6.2 mi SSE 15.0 mph - N/A   Mostly Cloudy
9:55 PM 42.8 °F 35.8 °F 33.8 °F 70% 29.56 in 6.2 mi SSE 13.8 mph - N/A   Overcast
10:00 PM 42 °F - 34 °F 66% 29.57 in 6 mi SSE 13.4 mph - -   Overcast
10:25 PM 42.8 °F 36.2 °F 33.8 °F 70% 29.56 in 6.2 mi SSE 12.7 mph - N/A   Overcast
10:55 PM 42.8 °F 36.6 °F 33.8 °F 70% 29.53 in 6.2 mi SSE 11.5 mph - N/A   Mostly Cloudy
11:00 PM 42 °F - 34 °F 65% 29.55 in 7 mi SSE 11.2 mph - -   Overcast
11:25 PM 42.8 °F 36.6 °F 33.8 °F 70% 29.53 in 6.2 mi SSE 11.5 mph - N/A   Mostly Cloudy
11:55 PM 42.8 °F 36.2 °F 33.8 °F 70% 29.50 in 6.2 mi SSE 12.7 mph - N/A   Mostly Cloudy